EW2690 Weather Reports


Display with metric or nautical units.
time (UTC)temp
F
wind
direction
speed
MPH
gust
MPH
rain 1hr
in
rain 24hr
in
rain mn
in
humidity
%
barometer
mb
20260510070320 46 327 0.0 0.0 0.01 0.43 0.07 96 1020.3
20260510070032 47 327 0.0 0.0 0.01 0.43 0.07 96 1020.2
20260510063009 48 327 1.0 2.0 0.00 0.42 0.06 95 1019.7
20260510060348 50 326 2.0 3.0 0.00 0.42 0.06 95 1019.7
20260510060023 50 24 1.0 2.0 0.00 0.42 0.06 95 1019.8
20260510053037 52 60 1.0 5.0 0.05 0.42 0.06 94 1019.5
20260510050311 54 328 1.0 8.0 0.06 0.42 0.06 93 1019.1
20260510050028 54 324 2.0 12.0 0.06 0.42 0.06 93 1019.1
20260510043022 56 312 1.0 5.0 0.01 0.37 0.01 91 1018.0
20260510040402 55 314 4.0 6.0 0.00 0.36 0.00 93 1017.6
20260510040028 55 314 4.0 6.0 0.00 0.36 0.00 93 1017.7
20260510033109 54 259 3.0 6.0 0.00 0.36 0.36 95 1016.9
20260510030347 54 180 1.0 2.0 0.00 0.36 0.36 92 1016.6
20260510030024 54 180 0.0 2.0 0.00 0.36 0.36 92 1016.5
20260510023110 55 212 2.0 5.0 0.00 0.36 0.36 91 1016.7
20260510020323 55 244 2.0 6.0 0.00 0.36 0.36 93 1016.7
20260510020040 55 182 3.0 6.0 0.00 0.36 0.36 93 1016.6
20260510013017 55 255 3.0 5.0 0.00 0.37 0.36 93 1016.1
20260510010354 55 273 3.0 7.0 0.00 0.37 0.36 94 1015.9
20260510010030 55 228 2.0 7.0 0.00 0.37 0.36 94 1015.9
20260510003012 55 233 1.0 4.0 0.00 0.40 0.36 95 1015.7
20260510000333 55 261 1.0 8.0 0.03 0.40 0.36 94 1015.5
20260510000023 55 275 1.0 8.0 0.04 0.40 0.36 94 1015.5
20260509233045 56 255 5.0 10.0 0.36 0.40 0.36 95 1015.2
20260509230341 55 279 6.0 23.0 0.33 0.37 0.33 93 1016.1
20260509230032 55 245 5.0 23.0 0.32 0.36 0.32 93 1016.1
20260509223038 68 309 7.0 13.0 0.00 0.04 0.00 61 1014.7
20260509220355 68 211 9.0 16.0 0.00 0.04 0.00 59 1012.7
20260509220030 68 255 8.0 14.0 0.00 0.04 0.00 59 1012.7
20260509213105 70 198 7.0 19.0 0.00 0.04 0.00 53 1012.4
20260509210402 70 265 7.0 12.0 0.00 0.04 0.00 56 1012.8
20260509210104 70 279 8.0 18.0 0.00 0.04 0.00 56 1012.9
20260509210021 70 279 8.0 18.0 0.00 0.04 0.00 56 1012.9
20260509203039 70 156 5.0 14.0 0.00 0.04 0.00 59 1013.4
20260509200313 70 254 9.0 17.0 0.00 0.04 0.00 57 1013.9
20260509200038 70 259 10.0 17.0 0.00 0.04 0.00 57 1013.9
20260509193032 69 206 8.0 17.0 0.00 0.04 0.00 57 1014.2
20260509190355 69 254 8.0 15.0 0.00 0.04 0.00 59 1014.5
20260509190047 69 219 8.0 14.0 0.00 0.04 0.00 57 1014.5
20260509183021 69 273 7.0 13.0 0.00 0.04 0.00 60 1014.7
20260509180336 68 238 6.0 11.0 0.00 0.04 0.00 61 1015.0
20260509180018 68 197 5.0 12.0 0.00 0.04 0.00 62 1015.0
20260509173012 67 243 7.0 17.0 0.00 0.04 0.00 62 1015.2
20260509170345 67 202 4.0 13.0 0.00 0.04 0.00 66 1015.4
20260509170020 67 265 7.0 13.0 0.00 0.04 0.00 65 1015.5
20260509163042 65 194 6.0 9.0 0.00 0.04 0.00 73 1015.7
20260509160317 62 339 3.0 8.0 0.00 0.04 0.00 82 1016.3
20260509160050 61 316 2.0 9.0 0.00 0.04 0.00 83 1016.3
20260509153024 62 291 5.0 10.0 0.00 0.04 0.00 78 1016.4
20260509150429 61 184 3.0 9.0 0.00 0.04 0.00 82 1016.3
20260509150044 61 232 5.0 9.0 0.00 0.04 0.00 81 1016.4
20260509143100 59 238 4.0 10.0 0.00 0.04 0.00 85 1016.6
20260509140422 58 211 3.0 7.0 0.00 0.04 0.00 88 1016.6
20260509140058 58 274 3.0 7.0 0.00 0.04 0.00 89 1016.7
20260509133014 56 192 4.0 7.0 0.00 0.04 0.00 92 1016.6
20260509130313 56 229 3.0 6.0 0.00 0.04 0.00 93 1016.7
20260509130009 56 205 1.0 6.0 0.00 0.04 0.00 93 1016.8
20260509123026 55 216 3.0 7.0 0.00 0.04 0.00 95 1017.0
20260509120404 54 155 2.0 4.0 0.00 0.04 0.00 96 1017.2
20260509120044 54 171 2.0 5.0 0.00 0.04 0.00 96 1017.2
20260509113039 53 132 1.0 3.0 0.00 0.04 0.00 96 1017.1
20260509110339 53 136 1.0 3.0 0.00 0.04 0.00 96 1017.0
20260509103015 53 181 2.0 3.0 0.00 0.04 0.00 96 1016.9
20260509100310 53 217 1.0 4.0 0.00 0.04 0.00 96 1016.9
20260509100009 53 233 1.0 4.0 0.00 0.04 0.00 96 1016.9
20260509093047 53 149 0.0 3.0 0.00 0.04 0.00 95 1017.1
20260509090349 53 185 2.0 4.0 0.00 0.04 0.00 95 1017.2
20260509090039 53 183 2.0 4.0 0.00 0.04 0.00 95 1017.3
20260509083104 53 215 3.0 6.0 0.00 0.04 0.00 95 1017.5
20260509080339 53 246 2.0 4.0 0.00 0.04 0.00 95 1017.4
20260509080038 53 209 1.0 3.0 0.00 0.04 0.00 95 1017.4
20260509073038 52 203 2.0 4.0 0.00 0.04 0.00 95 1017.6